Temperature
7 9 9 10 11 12 12 12 13 13 13 14 14 15 16 16 16 16 17 17 17 16 16 16 16 16 16 16 16 16 16 16 15 15 15 15 15 15 15 15 14 14 14 14
8 8 9 10 10 11 11 12 12 12 13 13 14 15 16 16 16 16 17 17 17 16 16 16 16 16 16 17 16 16 16 16 15 15 15 15 15 15 15 15 14 14 14 14
8 8 9 9 10 10 11 12 12 12 12 13 13 14 15 16 16 15 16 16 16 16 15 15 16 16 16 16 16 16 16 16 15 15 15 15 15 15 14 14 14 14 14 14
8 8 9 9 10 10 10 11 11 12 12 13 13 14 16 16 16 16 16 16 16 15 15 15 15 16 16 16 16 16 16 15 15 15 15 15 15 14 14 14 14 14 14 14
8 8 9 9 10 10 10 10 11 11 12 12 12 13 15 15 15 16 17 16 16 15 15 15 15 15 16 16 16 16 15 15 15 15 15 15 14 14 14 14 14 14 13 13
8 8 9 9 9 10 10 10 10 11 11 11 13 13 14 15 16 17 17 16 15 15 14 14 14 15 15 15 15 15 15 15 15 15 14 14 14 14 13 13 13 13 13 13
7 8 8 9 9 9 10 10 9 10 10 11 12 12 14 16 16 16 16 15 14 13 13 13 13 14 14 14 14 14 14 14 14 14 13 13 13 13 13 13 12 12 12 12
8 8 8 9 9 9 10 10 10 11 11 12 11 12 15 15 13 13 12 12 12 12 12 12 12 13 13 13 13 13 13 13 13 13 13 12 12 12 12 12 11 11 11 11
9 8 8 8 9 9 9 10 10 10 10 11 12 13 13 14 13 13 13 12 12 11 11 11 11 11 12 12 12 12 12 12 12 12 12 12 11 11 11 11 11 10 10 10
9 8 8 8 8 8 9 10 9 9 10 11 12 13 14 14 14 14 13 13 11 10 9 10 10 10 11 11 11 11 11 11 11 11 11 10 10 10 10 10 10 9 9 9
8 8 8 8 8 9 8 8 9 10 10 11 12 14 14 14 14 13 13 12 10 9 9 9 9 9 10 10 10 10 10 10 10 10 10 10 9 9 9 9 9 8 8 8
8 8 8 8 8 9 9 9 9 9 9 10 11 13 13 13 12 12 12 10 9 9 9 8 8 9 9 9 10 10 10 9 9 9 9 9 8 8 8 8 8 7 7 7
8 8 7 8 7 7 8 8 9 9 9 9 10 12 13 12 11 11 10 10 9 9 8 8 8 8 9 9 9 9 9 9 9 8 8 8 8 7 7 7 6 6 6 6
8 8 8 9 10 8 8 8 8 8 8 9 10 12 13 13 13 12 11 10 10 9 8 8 8 9 9 9 9 9 9 8 8 8 7 7 7 6 6 6 5 5 5 5
8 7 7 8 8 8 8 8 8 8 8 9 10 11 12 13 13 12 11 10 9 9 8 8 9 9 9 9 9 9 8 8 7 7 7 6 6 6 5 5 5 4 4 4
8 7 7 7 8 8 8 8 8 8 9 9 10 10 12 12 11 11 10 10 9 9 9 9 9 9 9 9 9 9 8 8 7 6 6 5 5 5 4 4 3 3 3 3
7 7 7 8 8 7 8 9 9 9 9 9 9 11 12 11 11 10 10 9 9 9 9 9 9 9 10 9 9 9 8 7 7 6 5 5 4 4 4 3 3 2 2 2
7 6 6 7 7 6 10 9 9 9 9 9 9 10 11 10 10 9 9 9 9 9 9 9 9 9 9 9 9 8 8 7 6 6 5 4 4 3 3 2 2 1 1 1
7 6 6 6 7 8 9 9 8 8 9 10 9 10 9 8 8 9 8 8 9 9 9 9 9 9 9 9 9 8 7 7 6 5 5 4 3 3 2 2 1 1 1 0
5 6 6 6 6 7 9 9 7 8 9 9 9 9 8 7 9 10 8 8 8 9 9 9 9 9 9 9 8 8 7 6 6 5 4 3 3 2 2 1 1 0 -0 -0
5 5 5 6 6 8 9 7 7 8 9 9 8 8 7 8 9 8 8 8 8 8 8 8 8 8 8 8 8 7 7 6 5 4 3 3 2 2 1 0 0 -0 -1 -1
6 6 6 6 6 7 8 7 8 9 8 7 7 7 7 7 7 7 7 8 8 8 8 8 8 8 8 8 7 7 6 6 4 4 3 2 2 1 1 -0 -0 -1 -1 -1
6 7 7 7 8 8 7 7 7 6 6 7 7 7 7 7 7 7 7 7 7 7 7 7 7 7 7 7 7 6 5 5 4 3 2 2 1 1 0 -0 -1 -1 -1 -1
6 5 5 6 7 7 6 6 6 6 6 6 6 6 6 6 7 7 7 7 7 7 7 7 7 7 7 6 6 5 4 4 3 3 2 1 1 0 -0 -1 -1 -1 -1 -1
5 5 4 5 6 6 6 6 5 5 5 6 6 6 6 6 6 6 7 7 7 7 6 6 6 6 6 5 5 4 4 3 3 2 1 1 0 -0 -0 -1 -1 -1 -0 -1
4 4 4 5 5 5 5 4 4 4 5 5 5 5 6 6 6 6 6 6 6 6 6 6 6 5 5 5 4 4 3 3 2 2 1 1 0 -0 -0 -0 -1 -1 -1 -1
Wind_Speed
3 4 8 10 8 5 9 11 12 9 6 11 16 16 13 9 12 16 16 15 13 11 7 5 5 6 7 7 8 9 9 9 8 6 6 6 6 6 5 6 7 7 8 8
5 5 4 4 5 6 9 10 10 6 5 8 12 16 15 13 14 15 17 17 16 13 9 7 6 7 8 8 8 8 8 7 7 6 6 4 4 4 4 4 4 5 6 7
5 3 4 6 7 8 8 10 9 7 5 6 8 13 18 17 16 15 16 16 16 14 13 10 9 8 8 8 8 7 7 6 6 6 5 4 3 3 4 4 3 3 4 5
3 2 5 7 7 8 6 6 7 8 8 7 9 9 14 16 17 18 18 17 16 14 13 11 10 9 8 7 6 7 6 6 5 5 6 7 6 6 5 4 3 2 2 2
3 4 7 7 6 6 4 4 5 7 9 7 9 9 9 10 16 19 19 18 17 14 13 12 10 9 8 7 6 6 6 5 4 4 5 5 5 4 3 3 3 3 1 1
2 2 3 4 3 4 5 6 3 3 5 9 13 12 10 10 14 15 16 16 15 14 12 11 9 8 8 7 7 6 7 6 4 4 4 5 5 5 5 4 4 3 2 1
2 2 2 3 5 5 6 7 4 6 7 8 7 10 10 8 9 11 12 12 11 10 10 11 11 11 10 10 8 7 7 6 5 5 4 4 3 3 4 3 3 3 2 1
4 5 6 5 6 7 9 7 5 5 6 4 6 10 8 5 6 8 9 9 8 9 9 10 12 12 11 10 9 9 8 7 6 5 4 3 3 2 1 1 1 1 1 1
5 4 4 4 3 5 7 6 2 1 1 4 7 6 8 7 7 7 7 7 8 8 8 10 11 11 11 11 10 9 8 7 6 5 4 4 3 3 2 2 1 1 0 1
3 3 4 3 3 2 3 4 4 4 4 6 7 8 6 6 6 4 4 5 5 5 7 9 10 11 10 10 9 8 8 7 6 5 4 3 3 3 2 2 1 1 1 1
3 4 4 5 8 10 7 5 6 5 4 5 5 4 2 4 3 3 4 4 4 5 7 9 10 10 10 9 9 8 8 7 6 5 4 4 3 3 2 2 1 1 1 1
4 3 4 5 2 3 9 10 9 6 6 5 6 5 2 3 3 4 4 3 3 5 7 9 10 10 10 10 9 8 8 7 6 5 5 4 4 3 3 2 2 1 1 1
5 4 3 3 4 5 6 9 11 8 5 7 8 7 2 2 4 4 4 3 3 5 8 9 10 10 11 10 10 9 8 7 7 6 6 5 4 4 3 3 2 2 2 2
4 5 7 6 2 5 7 10 13 11 8 10 15 15 10 9 9 8 7 7 6 7 9 11 11 11 11 10 10 9 9 8 8 7 6 6 5 4 4 3 3 3 3 3
4 4 6 8 7 6 9 11 14 16 15 13 15 18 18 15 14 13 11 10 9 9 10 12 13 13 12 11 11 10 9 9 9 8 7 6 5 5 5 4 4 4 4 3
4 4 4 7 8 9 12 15 16 18 18 20 21 22 18 16 14 14 14 12 12 12 13 13 14 14 14 13 12 11 11 10 10 9 8 7 7 6 6 5 5 5 4 4
3 4 4 6 5 6 12 14 17 15 15 15 19 20 16 15 14 14 14 13 13 13 13 14 14 15 14 14 13 13 12 11 10 10 9 8 8 7 7 6 6 6 5 5
7 5 4 5 5 10 6 2 7 13 16 16 17 17 15 15 14 13 13 13 13 12 12 13 13 13 12 12 12 11 11 12 11 10 10 9 9 8 8 7 7 6 5 5
10 8 5 4 7 10 8 4 6 7 9 10 14 15 14 11 10 10 9 11 12 11 10 10 10 10 10 11 12 12 12 12 11 11 11 10 10 9 9 8 8 6 6 5
6 8 7 6 6 6 3 1 3 3 6 3 6 8 7 4 5 4 4 5 6 6 6 6 6 8 9 10 12 12 12 12 12 11 11 10 10 10 9 8 8 6 6 6
4 6 9 10 9 8 4 1 5 5 3 2 3 5 5 5 6 6 6 5 3 2 2 4 6 7 8 10 12 12 11 12 10 10 10 10 10 9 9 8 7 7 6 6
6 6 7 7 8 7 2 5 5 4 4 4 5 5 5 6 7 6 5 3 1 0 2 4 5 6 7 9 11 10 10 9 9 10 10 10 9 8 8 8 8 8 8 7
6 6 5 6 6 3 1 5 5 5 6 6 6 6 5 5 5 4 4 3 2 1 2 3 4 5 6 8 9 9 8 9 10 10 10 9 9 9 9 9 9 8 8 7
5 4 6 8 9 9 9 9 8 7 8 8 8 8 6 6 6 5 4 3 2 2 3 3 5 5 6 7 8 7 8 9 10 10 10 9 9 9 8 8 8 8 8 8
8 5 7 10 11 11 7 6 9 9 8 8 9 8 7 6 6 5 4 4 3 2 3 4 5 5 6 6 7 7 8 10 10 10 9 9 9 9 9 8 8 9 9 9
7 8 8 8 8 8 11 11 12 12 11 9 9 8 6 6 6 5 4 3 3 3 3 4 4 5 5 6 7 7 9 10 10 9 9 8 8 8 8 8 7 10 10 12
Wind_Direction
128 165 176 178 192 193 181 194 197 201 192 209 223 233 234 232 229 231 231 232 231 232 227 212 208 202 197 199 200 200 199 200 199 197 201 207 211 212 214 220 227 229 233 233
140 173 166 158 168 165 178 191 199 200 201 216 231 239 239 238 237 235 234 233 232 230 222 212 205 197 196 194 194 194 193 194 197 200 199 204 203 213 214 209 221 231 235 237
147 142 170 169 167 172 188 200 198 196 186 213 236 244 237 235 236 237 236 235 235 232 229 217 207 197 192 189 188 186 185 186 192 194 188 175 182 195 201 208 211 225 233 236
120 169 177 175 182 186 190 202 203 202 201 211 216 246 233 227 229 231 232 230 229 229 230 223 211 202 191 183 175 176 171 169 173 187 197 200 209 219 220 216 210 211 224 241
155 177 178 185 194 195 176 165 189 208 217 228 215 241 248 220 231 231 229 229 230 229 227 221 210 200 185 171 164 160 155 149 152 169 189 200 211 216 206 206 210 208 201 260
137 185 205 192 171 178 146 144 143 191 216 235 223 227 254 225 230 232 230 229 230 230 228 221 205 187 176 164 157 154 150 141 142 151 164 182 191 195 200 210 216 216 214 228
152 180 190 188 158 163 181 170 177 192 210 231 199 225 248 242 236 240 240 235 231 227 219 209 197 188 178 169 163 159 153 142 136 133 137 150 168 187 205 215 220 223 225 237
174 183 186 189 194 185 193 205 218 213 212 206 194 231 244 249 251 253 256 256 246 232 218 206 197 188 179 172 166 163 157 147 140 133 125 123 130 144 153 171 204 221 248 329
191 178 160 189 192 185 183 210 247 291 259 239 226 243 269 248 242 244 250 251 244 231 216 203 191 184 177 172 169 165 158 151 145 138 133 125 120 121 126 128 125 108 62 17
193 177 177 168 176 202 227 174 175 205 220 238 240 244 241 209 218 233 251 254 248 226 208 196 187 180 175 169 163 161 160 154 148 145 137 128 123 120 126 133 128 115 73 43
200 188 171 184 207 200 182 191 212 215 243 250 254 242 212 227 238 256 276 276 251 218 200 189 182 177 170 164 164 163 161 158 154 150 144 142 134 130 133 132 123 114 93 71
199 200 202 212 220 242 220 216 207 216 221 232 261 260 129 237 264 270 280 281 239 208 192 185 180 175 174 173 173 171 170 168 163 157 154 149 144 146 149 140 127 118 108 89
176 185 183 195 209 205 222 223 223 232 245 231 241 253 148 236 259 261 264 269 230 203 192 188 186 186 184 182 180 178 177 173 166 164 163 161 162 163 158 146 133 125 120 112
188 215 230 236 243 184 209 215 215 216 229 240 242 256 254 261 269 269 265 267 254 223 207 200 197 195 192 189 186 183 181 175 170 171 173 174 172 166 156 147 142 134 127 120
205 239 244 258 260 238 237 232 222 223 233 245 256 260 264 269 273 275 273 266 255 235 219 210 206 201 196 193 191 188 183 179 176 177 179 176 170 162 158 156 149 140 132 124
228 249 251 258 251 247 253 247 238 238 241 247 259 266 269 274 274 270 266 259 250 240 228 218 212 207 202 198 194 189 187 182 179 181 180 172 171 169 168 164 157 149 141 136
226 235 248 260 261 259 255 244 235 233 233 239 251 261 273 273 269 267 266 258 251 245 235 224 216 211 207 202 195 192 187 178 181 183 178 174 175 175 172 167 163 160 154 146
225 228 245 260 245 244 257 228 237 242 249 244 252 266 274 277 283 280 271 261 255 248 239 229 220 213 207 197 191 185 177 178 181 182 180 178 178 177 174 172 170 166 161 155
222 223 234 241 252 269 273 243 213 228 262 253 253 265 275 286 288 274 263 257 254 253 244 233 219 207 195 187 180 175 176 180 183 186 184 182 181 179 178 179 175 171 168 161
208 220 232 237 251 258 279 177 182 218 261 258 249 269 285 277 271 294 341 306 271 257 244 222 199 186 182 178 172 175 179 183 190 188 184 181 182 183 183 180 175 173 172 170
187 207 226 239 249 262 280 174 162 225 292 351 276 281 279 253 272 314 324 320 305 263 214 182 174 176 176 170 172 180 184 192 188 178 176 178 182 184 181 176 174 172 174 173
219 219 221 227 236 250 154 153 206 280 329 306 296 294 284 274 283 292 303 310 304 194 156 165 166 164 163 170 177 185 191 183 171 170 174 179 181 179 176 175 175 177 178 182
235 240 251 236 249 311 232 239 278 298 291 298 301 298 289 283 286 285 284 281 259 218 177 170 169 161 167 179 186 192 185 171 169 173 178 180 181 181 178 180 180 181 188 193
259 256 255 264 268 281 288 285 289 286 279 289 293 292 284 279 281 276 273 265 244 216 194 181 177 181 186 189 195 194 176 172 174 180 181 181 183 184 184 187 189 192 195 199
267 263 261 268 282 294 287 302 309 303 294 295 296 286 277 278 279 272 265 256 245 225 205 197 200 202 199 191 195 188 179 177 182 185 185 186 189 188 190 197 201 203 208 207
247 246 256 268 292 294 294 305 308 303 295 291 289 286 282 271 273 274 265 254 237 225 210 207 211 212 205 197 197 191 185 185 186 187 189 190 190 191 195 199 207 217 220 220
Height
1512 1513 1510 1510 1511 1510 1511 1512 1514 1515 1518 1519 1517 1516 1516 1517 1519 1519 1520 1521 1523 1525 1527 1527 1529 1531 1533 1536 1538 1540 1543 1545 1547 1548 1550 1552 1553 1554 1555 1556 1557 1558 1558 1559
1514 1513 1513 1514 1514 1513 1514 1515 1515 1517 1518 1518 1516 1514 1513 1514 1515 1515 1516 1517 1519 1522 1523 1524 1526 1528 1530 1533 1535 1537 1540 1542 1544 1545 1547 1549 1550 1551 1552 1553 1553 1554 1554 1555
1511 1515 1515 1515 1514 1515 1515 1514 1515 1516 1517 1517 1517 1512 1509 1509 1511 1512 1513 1514 1515 1517 1520 1521 1523 1525 1527 1530 1532 1534 1536 1539 1541 1542 1544 1545 1546 1547 1548 1549 1549 1549 1550 1550
1514 1516 1515 1514 1514 1514 1516 1516 1517 1517 1517 1515 1516 1510 1500 1501 1504 1506 1508 1509 1511 1513 1516 1517 1519 1521 1523 1526 1528 1530 1533 1535 1537 1539 1540 1541 1542 1543 1544 1544 1545 1545 1545 1545
1515 1516 1515 1515 1515 1514 1515 1518 1518 1517 1515 1515 1514 1512 1497 1498 1499 1498 1501 1503 1506 1509 1511 1513 1515 1517 1519 1522 1524 1526 1528 1531 1533 1535 1536 1537 1538 1539 1540 1540 1540 1540 1540 1540
1516 1517 1516 1515 1516 1516 1517 1519 1520 1519 1517 1518 1507 1510 1497 1492 1491 1491 1495 1498 1501 1504 1506 1508 1510 1512 1515 1517 1520 1522 1524 1526 1529 1530 1532 1533 1534 1534 1535 1535 1535 1535 1535 1535
1516 1516 1516 1517 1516 1518 1518 1519 1520 1520 1518 1509 1504 1506 1493 1486 1489 1490 1492 1494 1497 1499 1501 1503 1505 1507 1509 1512 1515 1518 1520 1523 1524 1526 1527 1528 1529 1530 1530 1530 1530 1530 1530 1529
1512 1513 1514 1514 1513 1514 1514 1514 1513 1511 1507 1502 1509 1501 1487 1487 1489 1490 1491 1492 1493 1494 1496 1497 1499 1502 1505 1508 1511 1514 1517 1519 1521 1522 1523 1524 1525 1525 1525 1526 1526 1525 1525 1524
1507 1510 1513 1514 1514 1514 1514 1513 1513 1512 1510 1507 1497 1493 1488 1485 1486 1488 1489 1489 1490 1491 1492 1493 1495 1498 1501 1505 1508 1511 1513 1515 1517 1518 1519 1520 1520 1521 1521 1521 1521 1521 1520 1520
1506 1510 1512 1513 1515 1515 1514 1511 1515 1515 1510 1501 1491 1489 1482 1480 1481 1483 1485 1486 1486 1487 1488 1490 1492 1495 1498 1502 1505 1508 1510 1512 1514 1515 1516 1516 1516 1517 1517 1517 1516 1516 1516 1515
1508 1509 1512 1513 1511 1509 1514 1515 1511 1508 1505 1500 1491 1483 1477 1479 1481 1482 1483 1484 1484 1485 1486 1487 1489 1492 1495 1499 1502 1505 1507 1509 1510 1511 1512 1513 1513 1513 1513 1513 1512 1512 1511 1511
1507 1506 1507 1508 1508 1508 1507 1506 1507 1508 1505 1502 1493 1484 1479 1481 1482 1483 1482 1482 1482 1483 1484 1486 1488 1490 1493 1496 1499 1502 1504 1506 1507 1508 1509 1509 1509 1509 1509 1508 1508 1508 1507 1507
1505 1506 1506 1505 1510 1510 1507 1505 1504 1503 1503 1499 1496 1484 1479 1481 1481 1482 1481 1481 1481 1481 1482 1484 1486 1488 1491 1494 1497 1499 1501 1503 1504 1505 1505 1506 1506 1505 1505 1505 1504 1504 1504 1503
1504 1502 1500 1495 1492 1497 1501 1501 1501 1504 1501 1494 1487 1479 1476 1477 1478 1479 1479 1479 1479 1480 1480 1481 1483 1486 1488 1491 1494 1496 1498 1499 1500 1501 1502 1502 1502 1502 1502 1501 1501 1501 1501 1500
1503 1501 1498 1496 1496 1497 1495 1495 1496 1497 1493 1490 1480 1477 1473 1474 1475 1475 1476 1476 1477 1477 1477 1478 1480 1482 1485 1487 1490 1492 1494 1496 1497 1498 1498 1499 1499 1498 1498 1498 1498 1498 1498 1498
1500 1498 1497 1495 1494 1494 1493 1489 1489 1488 1486 1483 1480 1474 1470 1472 1473 1472 1472 1472 1472 1472 1473 1474 1476 1478 1480 1483 1486 1488 1490 1492 1493 1494 1494 1495 1495 1495 1495 1495 1495 1495 1495 1495
1499 1498 1497 1491 1491 1492 1486 1478 1479 1479 1477 1477 1474 1468 1467 1468 1468 1468 1468 1467 1467 1467 1468 1469 1470 1473 1475 1478 1481 1483 1486 1487 1489 1490 1490 1491 1491 1491 1491 1491 1492 1492 1492 1493
1497 1497 1496 1490 1492 1490 1473 1474 1474 1473 1471 1471 1469 1466 1466 1465 1465 1464 1463 1462 1461 1462 1462 1464 1466 1468 1471 1474 1476 1479 1481 1483 1484 1485 1486 1487 1487 1488 1488 1488 1489 1489 1490 1490
1494 1495 1493 1490 1484 1475 1470 1471 1473 1472 1467 1466 1465 1464 1463 1463 1462 1458 1457 1456 1456 1457 1458 1459 1461 1463 1466 1469 1471 1474 1476 1478 1479 1481 1482 1483 1483 1484 1484 1485 1486 1487 1487 1488
1492 1493 1492 1488 1483 1475 1467 1469 1470 1472 1465 1463 1463 1462 1462 1461 1458 1454 1454 1453 1452 1453 1454 1455 1457 1459 1462 1464 1467 1469 1471 1473 1475 1476 1478 1479 1480 1480 1481 1482 1483 1484 1485 1486
1489 1490 1488 1484 1480 1468 1467 1469 1471 1470 1463 1463 1462 1461 1460 1459 1457 1455 1453 1451 1450 1450 1451 1452 1454 1456 1458 1461 1463 1465 1467 1469 1471 1473 1474 1475 1476 1477 1478 1479 1480 1482 1483 1484
1481 1479 1478 1477 1476 1470 1466 1468 1468 1464 1463 1462 1461 1460 1458 1456 1455 1453 1451 1450 1449 1449 1449 1450 1452 1454 1456 1458 1460 1461 1463 1465 1467 1468 1470 1471 1472 1473 1474 1476 1477 1479 1480 1481
1479 1475 1471 1470 1467 1465 1465 1465 1464 1464 1463 1461 1460 1458 1457 1455 1453 1452 1451 1450 1449 1449 1449 1449 1451 1452 1453 1455 1457 1458 1460 1462 1463 1465 1466 1467 1469 1470 1471 1473 1474 1476 1477 1478
1477 1477 1475 1470 1464 1464 1464 1463 1462 1462 1460 1459 1458 1456 1455 1453 1451 1450 1449 1449 1448 1448 1448 1448 1449 1450 1451 1452 1454 1455 1456 1458 1459 1461 1462 1463 1465 1466 1467 1469 1471 1472 1473 1474
1475 1475 1472 1468 1464 1463 1460 1461 1460 1459 1457 1456 1455 1453 1452 1451 1449 1449 1448 1447 1447 1447 1447 1447 1447 1448 1449 1449 1450 1451 1452 1454 1455 1457 1458 1459 1461 1462 1464 1465 1467 1468 1470 1471
1473 1472 1470 1464 1464 1464 1460 1459 1457 1456 1454 1452 1451 1450 1449 1448 1447 1446 1445 1445 1445 1445 1444 1445 1445 1445 1445 1446 1447 1448 1449 1450 1451 1452 1453 1455 1456 1458 1460 1461 1463 1464 1466 1467